Flag for U.S.A. Weather past 2 weeks in Newport News, Virginia, U.S.A.

Now
44 °F

Overcast.


Feels Like: 37 °F
Forecast: 27 / 44 °F
Wind: 15 mph from Southwest

Location: Newport News / Williamsburg International Airport

Current Time: Jan 30, 2015 at 1:49:27 AM

Latest Report: Jan 30, 2015 at 12:54 AM


Visibility: 10 mi

Pressure: 29.98 "Hg

Humidity: 47%

Dew point: 25 °F

Location of Newport NewsLocation

Historic Weather in Newport News — Graph

°F

Newport News temperature yesterday

Maximum temperature yesterday: 43 °F (at 3:54 PM)
Minimum temperature yesterday: 23 °F (at 6:54 AM)
Average temperature yesterday: 36 °F

Past Weeks' High & Low Weather Summary

 TemperatureHumidityPressure
High62 °F (Jan 20, 2:54 PM)93% (Jan 22, 10:03 AM)30.45 "Hg (Jan 22, 10:03 AM)
Low23 °F (Jan 29, 6:54 AM)23% (Jan 28, 4:54 PM)29.44 "Hg (Jan 24, 12:54 PM)
Average41 °F67%30.01 "Hg
* Reported Jan 14 11:54 PM — Jan 29 11:54 PM, Newport News, Weather by CustomWeather, © 2014

Note: Actual official high and low records may vary slightly from our data, if they occured in-between our weather recording intervals... More about our weather records

Advertising

Newport News weather history for previous 24 hours

 ConditionsComfort  
Time TempWeatherWind HumidityBarometerVisibility
11:54 PM
Jan 29
42 °FPassing clouds.8 mph49%30.02 "Hg10 mi
10:54 PM42 °FOvercast.8 mph47%30.04 "Hg10 mi
9:54 PM42 °FOvercast.8 mph45%30.08 "Hg10 mi
8:54 PM42 °FOvercast.9 mph45%30.10 "Hg10 mi
7:54 PM42 °FOvercast.9 mph43%30.10 "Hg10 mi
6:54 PM43 °FOvercast.9 mph40%30.11 "Hg10 mi
5:54 PM43 °FMostly cloudy.12 mph40%30.13 "Hg10 mi
4:54 PM43 °FSunny.13 mph38%30.14 "Hg10 mi
3:54 PM43 °FSunny.8 mph40%30.18 "Hg10 mi
2:54 PM42 °FSunny.8 mph39%30.19 "Hg10 mi
1:54 PM41 °FSunny.8 mph41%30.22 "Hg10 mi
12:54 PM40 °FSunny.7 mph38%30.26 "Hg10 mi
11:54 AM39 °FSunny.6 mph43%30.30 "Hg10 mi
10:54 AM38 °FSunny.6 mph51%30.33 "Hg10 mi
9:54 AM36 °FSunny.6 mph54%30.34 "Hg10 mi
8:54 AM33 °FSunny.No wind56%30.35 "Hg10 mi
7:54 AM28 °FSunny.No wind69%30.36 "Hg10 mi
6:54 AM23 °FClear.5 mph72%30.34 "Hg10 mi
5:54 AM26 °FClear.5 mph60%30.33 "Hg10 mi
4:54 AM28 °FClear.5 mph53%30.32 "Hg10 mi
3:54 AM26 °FClear.3 mph60%30.34 "Hg10 mi
2:54 AM29 °FClear.No wind51%30.34 "Hg10 mi
1:54 AM30 °FClear.3 mph45%30.34 "Hg10 mi
Weather by CustomWeather, © 2014

See weather overviewHow to use our weather pages